KUIPER-00082

Last updated on Sat Aug 16 2025 00:02:06 GMT+0000 (Coordinated Universal Time)

1 64828U 25151N 25227.46084110 .00030074 00000+0 84951-3 0 9997 2 64828 51.8773 141.9813 0004857 248.7285 111.3183 15.36096319 4632
UTC large
Height (km)
Speed (km/s)
/
Latitude / Longitude
Inclination (degrees)
Orbital Period (minutes)
Azimuth
Elevation
Range (km)
Doppler Factor

Next 0 passes for location: London (51.5072 / 0.1276)

Sorry there are no passes over London.
KUIPER-00082